Orbital Elements at Epoch 2459200.5 (2020-Dec-17.0) TDB
Reference: JPL 20 (heliocentric ecliptic J2000)
Element | Value | Uncertainty (1-sigma) | Units |
e | .0820280423305849 | 4.4628e-08 | |
a | 2.593485631437644 | 1.354e-08 | au |
q | 2.380747082278313 | 1.0952e-07 | au |
i | 1.497489110123134 | 4.1757e-06 | deg |
node | 255.8566932420259 | 0.00016555 | deg |
peri | 58.38033645547754 | 0.00016847 | deg |
M | 86.1789659298709 | 3.2892e-05 | deg |
tp | 2458835.306554591640 (2019-Dec-17.80655459) | 0.00013811 | TDB |
period | 1525.542096362522 4.18 | 1.1946e-05 3.271e-08 | d yr |
n | .2359816886458775 | 1.848e-09 | deg/d |
Q | 2.806224180596974 | 1.465e-08 | au |
|
| | Orbit Determination Parameters
Additional Information
|